Jefferson, NC

10:52 AM EST on December 09, 2019 (GMT -0500)
Ashe County

Weather History for KGEV - August, 2019

Change the Weather History Date:

Tuesday, August 6, 2019

  Actual Average Record
Temperature  
Mean Temperature 67 °F -  
Max Temperature 78 °F 79 °F 86 °F (1968)
Min Temperature 56 °F 58 °F 49 °F (1969)
Cooling Degree Days 2    
Growing Degree Days 17 (Base 50)    
Moisture  
Dew Point 60 °F    
Average Humidity 78    
Maximum Humidity 100    
Minimum Humidity 49    
Precipitation  
Precipitation 0.00 in - - ()
Sea Level Pressure  
Sea Level Pressure 30.05 in    
Wind  
Wind Speed 3 mph ()    
Max Wind Speed 14 mph    
Max Gust Speed -    
Visibility 7.4 miles    
Events Fog    
Averages and records for this station are not official NWS values.
T = Trace of Precipitation, MM = Missing Value Source: Averaged Metar Reports

Daily Weather History Graph

Daily Weather History Graph

Search for Another Location

Airport or City:

Astronomy

Aug. 06, 2019 Rise Set
Actual Time 6:35 AM EDT 8:26 PM EDT
Civil Twilight 6:07 AM EDT 8:54 PM EDT
Nautical Twilight 5:33 AM EDT 9:28 PM EDT
Astronomical Twilight 4:57 AM EDT 10:04 PM EDT
Moon 12:49 PM EDT (8/6) No Moon Set
Length of Visible Light 14h 46m
Length of Day
13h 50m
Waxing Crescent, 38% of the Moon is Illuminated
Aug 6
Waxing Crescent
Aug 7
First Quarter
Aug 15
Full
Aug 23
Last Quarter
Aug 30
New

Hourly Weather History & Observations

Time (EDT) Temp. Dew Point Humidity Pressure Visibility Wind Dir Wind Speed Gust Speed Precip Events Conditions
12:15 AM 63.5 °F 62.6 °F 97% 30.08 in 7.0 mi SSW 3.5 mph - N/A   Clear
12:35 AM 62.6 °F 62.2 °F 99% 30.08 in 5.0 mi SSW 3.5 mph - N/A   Clear
12:55 AM 63.7 °F 62.6 °F 96% 30.08 in 10.0 mi Calm Calm - N/A   Clear
1:35 AM 62.6 °F 61.7 °F 97% 30.08 in 7.0 mi SSW 3.5 mph - N/A   Clear
1:55 AM 62.8 °F 61.7 °F 96% 30.07 in 10.0 mi SSW 3.5 mph - N/A   Clear
2:15 AM 61.0 °F 60.8 °F 99% 30.07 in 4.0 mi Calm Calm - N/A   Clear
2:35 AM 61.2 °F 61.2 °F 100% 30.07 in 0.8 mi Calm Calm - N/A   Mostly Cloudy
2:55 AM 60.3 °F 60.3 °F 100% 30.07 in 1.5 mi Calm Calm - N/A   Mostly Cloudy
3:15 AM 58.8 °F 58.8 °F 100% 30.07 in 0.2 mi Calm Calm - N/A Fog Fog
3:35 AM 59.4 °F 59.4 °F 100% 30.07 in 0.2 mi Calm Calm - N/A Fog Fog
3:55 AM 60.1 °F 60.1 °F 100% 30.07 in 0.2 mi Calm Calm - N/A Fog Fog
4:15 AM 59.0 °F 59.0 °F 100% 30.07 in 0.5 mi Calm Calm - N/A Fog Fog
4:35 AM 59.5 °F 59.5 °F 100% 30.06 in 1.5 mi Calm Calm - N/A   Mostly Cloudy
4:55 AM 59.2 °F 59.2 °F 100% 30.06 in 0.5 mi Calm Calm - N/A Fog Fog
5:15 AM 59.5 °F 59.5 °F 100% 30.06 in 0.8 mi Calm Calm - N/A   Overcast
5:35 AM 58.3 °F 58.3 °F 100% 30.06 in 0.2 mi Calm Calm - N/A Fog Fog
5:55 AM 57.6 °F 57.6 °F 100% 30.06 in 0.5 mi Calm Calm - N/A Fog Fog
6:15 AM 57.0 °F 57.0 °F 100% 30.06 in 0.8 mi Calm Calm - N/A   Mostly Cloudy
6:35 AM 57.7 °F 57.7 °F 100% 30.06 in 10.0 mi Calm Calm - N/A   Scattered Clouds
6:55 AM 56.7 °F 56.7 °F 100% 30.06 in 0.2 mi Calm Calm - N/A Fog Fog
7:15 AM 56.3 °F 56.3 °F 100% 30.06 in 0.2 mi Calm Calm - N/A Fog Fog
7:35 AM 57.2 °F 57.2 °F 100% 30.06 in 0.2 mi Calm Calm - N/A Fog Fog
7:55 AM 57.6 °F 57.6 °F 100% 30.06 in 0.2 mi Calm Calm - N/A Fog Fog
8:15 AM 59.0 °F 59.0 °F 100% 30.07 in 1.2 mi Calm Calm - N/A   Mostly Cloudy
8:35 AM 60.3 °F 60.3 °F 100% 30.07 in 0.2 mi Calm Calm - N/A Fog Fog
8:55 AM 62.2 °F 61.9 °F 99% 30.08 in 10.0 mi Calm Calm - N/A   Scattered Clouds
9:15 AM 65.5 °F 64.8 °F 98% 30.08 in 10.0 mi Calm Calm - N/A   Clear
9:35 AM 64.9 °F 64.0 °F 97% 30.07 in 10.0 mi Calm Calm - N/A   Clear
9:55 AM 67.5 °F 64.8 °F 91% 30.08 in 10.0 mi Calm Calm - N/A   Clear
10:15 AM 68.9 °F 66.2 °F 91% 30.08 in 10.0 mi Calm Calm - N/A   Clear
10:35 AM 70.3 °F 64.4 °F 81% 30.07 in 10.0 mi Calm Calm - N/A   Scattered Clouds
10:55 AM 72.3 °F 62.2 °F 70% 30.08 in 10.0 mi West 6.9 mph - N/A   Scattered Clouds
11:15 AM 74.1 °F 58.3 °F 58% 30.08 in 10.0 mi West 11.5 mph - N/A   Scattered Clouds
11:35 AM 75.0 °F 59.0 °F 57% 30.08 in 10.0 mi West 13.8 mph - N/A   Clear
11:55 AM 74.7 °F 58.5 °F 57% 30.08 in 10.0 mi West 9.2 mph - N/A   Clear
12:15 PM 76.1 °F 57.4 °F 52% 30.08 in 10.0 mi West 6.9 mph - N/A   Clear
12:35 PM 76.3 °F 57.0 °F 51% 30.07 in 10.0 mi West 9.2 mph - N/A   Clear
12:55 PM 76.3 °F 56.3 °F 50% 30.07 in 10.0 mi West 4.6 mph - N/A   Clear
1:15 PM 77.4 °F 57.4 °F 50% 30.06 in 10.0 mi WSW 5.8 mph - N/A   Scattered Clouds
1:35 PM 77.7 °F 59.2 °F 53% 30.06 in 10.0 mi West 8.1 mph - N/A   Scattered Clouds
1:55 PM 78.6 °F 58.1 °F 49% 30.06 in 10.0 mi West 4.6 mph - N/A   Scattered Clouds
2:15 PM 76.5 °F 61.0 °F 59% 30.04 in 10.0 mi NW 8.1 mph - N/A   Scattered Clouds
2:35 PM 77.0 °F 61.0 °F 58% 30.04 in 10.0 mi NW 8.1 mph - N/A   Scattered Clouds
2:55 PM 78.1 °F 57.9 °F 50% 30.04 in 10.0 mi WNW 3.5 mph - N/A   Scattered Clouds
3:15 PM 77.5 °F 59.5 °F 54% 30.04 in 10.0 mi NW 8.1 mph - N/A   Clear
3:35 PM 76.5 °F 59.4 °F 55% 30.03 in 10.0 mi WNW 9.2 mph - N/A   Clear
3:55 PM 76.5 °F 60.1 °F 57% 30.03 in 10.0 mi West 4.6 mph - N/A   Clear
4:15 PM 76.8 °F 59.2 °F 54% 30.02 in 10.0 mi WSW 4.6 mph - N/A   Clear
4:35 PM 75.6 °F 59.4 °F 57% 30.02 in 10.0 mi WNW 8.1 mph - N/A   Clear
4:55 PM 75.7 °F 59.9 °F 58% 30.02 in 10.0 mi WNW 5.8 mph - N/A   Clear
5:15 PM 76.8 °F 60.6 °F 57% 30.02 in 10.0 mi West 9.2 mph - N/A   Clear
5:35 PM 76.6 °F 59.4 °F 55% 30.02 in 10.0 mi West 6.9 mph - N/A   Clear
5:55 PM 76.3 °F 60.6 °F 58% 30.02 in 10.0 mi West 8.1 mph - N/A   Clear
6:15 PM 75.6 °F 60.1 °F 59% 30.01 in 10.0 mi West 6.9 mph - N/A   Clear
6:35 PM 76.1 °F 60.1 °F 57% 30.01 in 10.0 mi West 5.8 mph - N/A   Clear
6:55 PM 75.0 °F 61.2 °F 62% 30.01 in 10.0 mi WNW 6.9 mph - N/A   Clear
7:15 PM 74.7 °F 61.2 °F 63% 30.02 in 10.0 mi West 5.8 mph - N/A   Clear
7:35 PM 73.8 °F 61.3 °F 65% 30.01 in 10.0 mi West 4.6 mph - N/A   Clear
7:55 PM 73.4 °F 61.7 °F 67% 30.02 in 10.0 mi Calm Calm - N/A   Clear
8:15 PM 72.1 °F 61.3 °F 69% 30.03 in 10.0 mi WNW 6.9 mph - N/A   Clear
8:35 PM 72.0 °F 60.4 °F 67% 30.03 in 10.0 mi WNW 4.6 mph - N/A   Clear
8:55 PM 70.7 °F 61.5 °F 73% 30.02 in 10.0 mi West 4.6 mph - N/A   Clear
9:15 PM 70.7 °F 61.5 °F 73% 30.02 in 10.0 mi West 4.6 mph - N/A   Clear
9:35 PM 70.7 °F 60.8 °F 71% 30.03 in 10.0 mi West 4.6 mph - N/A   Clear
9:55 PM 70.3 °F 60.8 °F 72% 30.04 in 10.0 mi Calm Calm - N/A   Clear
10:15 PM 64.4 °F 62.6 °F 94% 30.03 in 10.0 mi Calm Calm - N/A   Clear
10:35 PM 65.8 °F 61.9 °F 87% 30.03 in 10.0 mi Calm Calm - N/A   Clear
10:55 PM 67.3 °F 60.3 °F 78% 30.03 in 10.0 mi Calm Calm - N/A   Clear
11:15 PM 67.1 °F 59.9 °F 78% 30.03 in 10.0 mi West 3.5 mph - N/A   Clear
11:35 PM 67.3 °F 59.0 °F 75% 30.03 in 10.0 mi West 4.6 mph - N/A   Clear
11:55 PM 67.6 °F 58.8 °F 73% 30.04 in 10.0 mi West 4.6 mph - N/A   Clear